I1SCL Weather Reports


Display with metric or nautical units.
time (UTC)temp
F
wind
direction
speed
MPH
gust
MPH
rain 1hr
in
rain 24hr
in
rain mn
in
humidity
%
barometer
mb
20260503194628 58 248 2.0 2.0 0.00 0.00 0.00 76 1015.9
20260503194131 58 225 1.0 2.0 0.00 0.00 0.00 76 1015.6
20260503193628 58 180 1.0 1.0 0.00 0.00 0.00 76 1015.8
20260503193131 58 135 0.0 1.0 0.00 0.00 0.00 76 1015.7
20260503192631 59 135 0.0 2.0 0.00 0.00 0.00 76 1015.5
20260503192128 59 113 1.0 3.0 0.00 0.00 0.00 76 1015.5
20260503191628 59 90 0.0 3.0 0.00 0.00 0.00 75 1015.5
20260503191128 59 135 1.0 3.0 0.00 0.00 0.00 75 1015.5
20260503190628 59 135 0.0 3.0 0.00 0.00 0.00 75 1015.2
20260503190131 59 113 0.0 1.0 0.00 0.00 0.00 74 1015.3
20260503185628 59 113 0.0 3.0 0.00 0.00 0.00 74 1015.5
20260503185131 59 113 2.0 3.0 0.00 0.00 0.00 74 1015.5
20260503184631 59 135 2.0 3.0 0.00 0.00 0.00 74 1015.3
20260503184131 59 135 1.0 4.0 0.00 0.00 0.00 74 1015.4
20260503183631 59 113 0.0 3.0 0.00 0.00 0.00 74 1015.3
20260503183131 59 113 2.0 4.0 0.00 0.00 0.00 73 1015.1
20260503182634 59 135 1.0 4.0 0.00 0.00 0.00 74 1015.5
20260503182128 59 135 1.0 3.0 0.00 0.00 0.00 75 1015.2
20260503181631 59 113 0.0 6.0 0.00 0.00 0.00 75 1015.4
20260503181128 59 158 3.0 6.0 0.00 0.00 0.00 75 1015.4
20260503180628 59 113 3.0 6.0 0.00 0.00 0.00 76 1015.1
20260503180128 59 135 3.0 9.0 0.00 0.00 0.00 76 1015.3
20260503175628 59 158 6.0 9.0 0.00 0.00 0.00 77 1015.1
20260503175131 59 113 5.0 9.0 0.00 0.00 0.00 77 1015.2
20260503174628 59 90 5.0 8.0 0.00 0.00 0.00 77 1015.2
20260503174128 59 113 3.0 10.0 0.00 0.00 0.00 77 1015.2
20260503173628 59 158 6.0 9.0 0.00 0.00 0.00 77 1015.1
20260503173128 59 113 5.0 9.0 0.00 0.00 0.00 77 1015.2
20260503172628 59 113 5.0 9.0 0.00 0.00 0.00 77 1015.3
20260503172131 59 113 6.0 11.0 0.00 0.00 0.00 77 1015.3
20260503171628 59 135 6.0 10.0 0.00 0.00 0.00 76 1015.3
20260503171128 60 135 6.0 9.0 0.00 0.00 0.00 76 1015.3
20260503170628 60 135 4.0 10.0 0.00 0.00 0.00 75 1015.4
20260503170128 60 113 7.0 11.0 0.00 0.00 0.00 74 1015.7
20260503160128 61 135 7.0 12.0 0.00 0.00 0.00 71 1015.6
20260503150628 62 113 9.0 15.0 0.00 0.00 0.00 71 1015.5
20260503150128 61 135 8.0 15.0 0.00 0.00 0.00 71 1015.6
20260503140128 62 135 6.0 12.0 0.00 0.00 0.00 68 1016.7
20260503131134 61 113 4.0 11.0 0.00 0.00 0.00 70 1017.0
20260503130631 60 90 6.0 10.0 0.00 0.00 0.00 72 1017.0
20260503130134 61 135 7.0 10.0 0.00 0.00 0.00 71 1017.1
20260503120128 62 113 6.0 11.0 0.00 0.00 0.00 69 1017.6
20260503110631 63 158 6.0 11.0 0.00 0.00 0.00 65 1017.4
20260503110137 63 113 3.0 12.0 0.00 0.00 0.00 65 1017.4
20260503100128 62 135 6.0 10.0 0.00 0.00 0.00 57 1018.2
20260503090128 61 113 5.0 9.0 0.00 0.00 0.00 71 1017.8
20260503081628 61 113 5.0 8.0 0.00 0.00 0.00 68 1017.8
20260503081137 60 113 5.0 8.0 0.00 0.00 0.00 69 1017.9
20260503080637 61 113 3.0 6.0 0.00 0.00 0.00 68 1017.7
20260503080128 61 90 3.0 8.0 0.00 0.00 0.00 69 1017.8
20260503072628 60 113 3.0 6.0 0.00 0.00 0.00 69 1017.4
20260503072128 60 113 2.0 6.0 0.00 0.00 0.00 68 1017.5
20260503071634 60 135 4.0 6.0 0.00 0.00 0.00 68 1017.5
20260503071131 59 113 3.0 6.0 0.00 0.00 0.00 67 1017.6
20260503070628 59 135 3.0 4.0 0.00 0.00 0.00 64 1017.6
20260503070131 59 45 0.0 6.0 0.00 0.00 0.00 66 1017.4
20260503060128 58 90 2.0 6.0 0.00 0.00 0.00 67 1017.2
20260503054637 58 68 3.0 4.0 0.00 0.00 0.00 68 1017.3
20260503054128 58 90 3.0 4.0 0.00 0.00 0.00 68 1017.0
20260503053634 57 68 3.0 4.0 0.00 0.00 0.00 67 1017.2
20260503053131 58 90 1.0 2.0 0.00 0.00 0.00 67 1017.6
20260503052631 58 90 0.0 2.0 0.00 0.00 0.00 68 1017.4
20260503052128 58 90 0.0 2.0 0.00 0.00 0.00 67 1017.4
20260503051631 57 90 1.0 2.0 0.00 0.00 0.00 67 1017.2
20260503051128 57 90 0.0 1.0 0.00 0.00 0.00 67 1017.3
20260503050628 57 90 0.0 1.0 0.00 0.00 0.00 68 1017.2
20260503050134 57 90 0.0 2.0 0.00 0.00 0.00 68 1017.2
20260503045628 57 90 0.0 2.0 0.00 0.00 0.00 68 1017.1
20260503045131 57 90 1.0 3.0 0.00 0.00 0.00 69 1017.1
20260503044628 57 90 1.0 3.0 0.00 0.00 0.00 69 1017.1
20260503044128 57 113 2.0 3.0 0.00 0.00 0.00 68 1017.2
20260503043628 57 113 2.0 4.0 0.00 0.00 0.00 68 1017.1
20260503043128 57 113 3.0 4.0 0.00 0.00 0.00 67 1016.9
20260503042628 57 113 3.0 4.0 0.00 0.00 0.00 67 1017.2
20260503042128 57 113 2.0 3.0 0.00 0.00 0.00 67 1017.2
20260503041634 57 113 2.0 2.0 0.00 0.00 0.00 67 1017.4
20260503041128 57 113 1.0 3.0 0.00 0.00 0.00 67 1017.3
20260503040634 57 90 1.0 2.0 0.00 0.00 0.00 66 1017.4
20260503040128 57 113 1.0 3.0 0.00 0.00 0.00 65 1017.2
20260503035628 57 113 2.0 4.0 0.00 0.00 0.00 65 1017.2
20260503035131 57 113 3.0 4.0 0.00 0.00 0.00 65 1017.2
20260503034631 57 113 1.0 3.0 0.00 0.00 0.00 64 1017.3
20260503034128 57 113 2.0 4.0 0.00 0.00 0.00 63 1017.0
20260503033631 57 113 2.0 3.0 0.00 0.00 0.00 63 1017.1
20260503033131 57 113 2.0 3.0 0.00 0.00 0.00 63 1017.3
20260503032634 57 135 1.0 2.0 0.00 0.00 0.00 61 1017.2
20260503032131 57 135 0.0 1.0 0.00 0.00 0.00 60 1017.1
20260503031631 57 135 0.0 1.0 0.00 0.00 0.00 63 1017.1
20260503031128 57 135 0.0 1.0 0.00 0.00 0.00 66 1017.4
20260503030628 57 135 0.0 1.0 0.00 0.00 0.00 68 1017.2
20260503030128 57 135 0.0 1.0 0.00 0.00 0.00 68 1017.3
20260503025628 58 135 0.0 1.0 0.00 0.00 0.00 67 1017.4
20260503025137 57 135 0.0 1.0 0.00 0.00 0.00 62 1017.2
20260503024631 58 158 0.0 2.0 0.00 0.00 0.00 63 1017.2
20260503024137 58 158 1.0 2.0 0.00 0.00 0.00 63 1017.3
20260503023628 57 158 0.0 1.0 0.00 0.00 0.00 62 1017.5
20260503023131 58 180 0.0 2.0 0.00 0.00 0.00 62 1017.3
20260503022628 58 158 1.0 2.0 0.00 0.00 0.00 62 1017.2
20260503022134 58 113 1.0 3.0 0.00 0.00 0.00 60 1017.5
20260503021629 58 113 0.0 4.0 0.00 0.00 0.00 59 1017.3
20260503021132 58 135 3.0 4.0 0.00 0.00 0.00 60 1017.4
20260503020629 58 135 3.0 4.0 0.00 0.00 0.00 59 1017.4
20260503020131 58 158 3.0 3.0 0.00 0.00 0.00 58 1017.8
20260503015631 58 158 3.0 3.0 0.00 0.00 0.00 57 1017.4
20260503015131 59 158 3.0 3.0 0.00 0.00 0.00 50 1017.4
20260503014628 60 158 2.0 2.0 0.00 0.00 0.00 43 1017.6
20260503014131 61 338 1.0 2.0 0.00 0.00 0.00 41 1017.6
20260503013628 61 338 0.0 2.0 0.00 0.00 0.00 42 1017.5
20260503013134 61 0 1.0 3.0 0.00 0.00 0.00 42 1017.6
20260503012634 61 45 1.0 2.0 0.00 0.00 0.00 41 1017.5
20260503012128 61 45 1.0 2.0 0.00 0.00 0.00 41 1017.7
20260503011628 61 45 1.0 2.0 0.00 0.00 0.00 41 1017.5
20260503011128 61 45 0.0 1.0 0.00 0.00 0.00 41 1017.5
20260503010634 60 113 0.0 2.0 0.00 0.00 0.00 42 1017.6
20260503010128 60 113 0.0 1.0 0.00 0.00 0.00 43 1017.6
20260503005628 60 113 0.0 1.0 0.00 0.00 0.00 43 1017.7
20260503005128 60 135 0.0 2.0 0.00 0.00 0.00 43 1017.9
20260503004628 60 113 2.0 2.0 0.00 0.00 0.00 42 1017.8
20260503004137 60 113 1.0 2.0 0.00 0.00 0.00 42 1017.8
20260503003628 61 113 0.0 3.0 0.00 0.00 0.00 42 1017.8
20260503003137 61 113 3.0 4.0 0.00 0.00 0.00 41 1018.0
20260503002628 61 90 3.0 4.0 0.00 0.00 0.00 42 1017.6
20260503002128 60 90 2.0 6.0 0.00 0.00 0.00 42 1017.9
20260503001628 60 113 4.0 6.0 0.00 0.00 0.00 42 1017.6
20260503001128 61 158 4.0 6.0 0.00 0.00 0.00 42 1017.8
20260503000631 60 90 4.0 4.0 0.00 0.00 0.00 42 1017.7
20260503000128 60 90 4.0 6.0 0.00 0.00 0.00 42 1017.7
20260502235631 60 113 3.0 4.0 0.00 0.00 0.00 43 1017.8
20260502235128 61 90 3.0 4.0 0.00 0.00 0.00 42 1017.9
20260502234637 61 45 0.0 2.0 0.00 0.00 0.00 42 1018.1
20260502234131 61 0 1.0 2.0 0.00 0.00 0.00 42 1018.3
20260502233631 61 68 0.0 1.0 0.00 0.00 0.00 42 1018.4
20260502233128 61 90 0.0 2.0 0.00 0.00 0.00 43 1018.4
20260502232631 60 90 2.0 3.0 0.00 0.00 0.00 44 1018.2
20260502232131 60 68 2.0 3.0 0.00 0.00 0.00 45 1018.2
20260502231628 60 90 3.0 3.0 0.00 0.00 0.00 46 1018.5
20260502231137 60 90 3.0 3.0 0.00 0.00 0.00 46 1018.4
20260502230634 60 90 2.0 3.0 0.00 0.00 0.00 46 1018.5
20260502230131 60 68 2.0 3.0 0.00 0.00 0.00 47 1018.6
20260502225628 60 90 3.0 4.0 0.00 0.00 0.00 46 1018.5
20260502225131 60 90 3.0 3.0 0.00 0.00 0.00 47 1018.7
20260502224628 59 90 2.0 6.0 0.00 0.00 0.00 47 1018.4
20260502224128 59 90 4.0 4.0 0.00 0.00 0.00 48 1018.6
20260502223634 59 68 3.0 3.0 0.00 0.00 0.00 48 1018.6
20260502223128 60 90 3.0 3.0 0.00 0.00 0.00 47 1018.5
20260502222631 60 248 1.0 3.0 0.00 0.00 0.00 45 1018.6
20260502222131 60 225 3.0 4.0 0.00 0.00 0.00 45 1018.6
20260502221628 60 225 3.0 4.0 0.00 0.00 0.00 46 1018.8
20260502221128 60 270 1.0 3.0 0.00 0.00 0.00 46 1018.8
20260502220634 60 248 2.0 3.0 0.00 0.00 0.00 46 1018.8
20260502220128 60 270 2.0 3.0 0.00 0.00 0.00 47 1018.5
20260502215628 60 270 2.0 4.0 0.00 0.00 0.00 49 1018.7
20260502215131 60 248 3.0 3.0 0.00 0.00 0.00 49 1018.8
20260502214628 60 338 1.0 3.0 0.00 0.00 0.00 48 1018.6
20260502214128 60 338 2.0 4.0 0.00 0.00 0.00 48 1019.0
20260502213628 60 293 3.0 4.0 0.00 0.00 0.00 49 1019.0
20260502213128 59 293 3.0 4.0 0.00 0.00 0.00 48 1019.0
20260502212628 59 270 4.0 4.0 0.00 0.00 0.00 47 1019.0
20260502212128 60 338 1.0 2.0 0.00 0.00 0.00 46 1019.0
20260502211628 60 23 1.0 3.0 0.00 0.00 0.00 46 1019.0
20260502211128 59 338 1.0 1.0 0.00 0.00 0.00 47 1019.1
20260502210628 59 90 0.0 0.0 0.00 0.00 0.00 47 1019.1
20260502210128 59 90 0.0 0.0 0.00 0.00 0.00 49 1019.0
20260502205631 59 90 0.0 2.0 0.00 0.00 0.00 49 1018.8
20260502205128 60 90 1.0 4.0 0.00 0.00 0.00 50 1019.1
20260502204634 60 90 2.0 4.0 0.00 0.00 0.00 50 1019.1
20260502204131 59 113 3.0 4.0 0.00 0.00 0.00 49 1019.1
20260502203628 59 113 3.0 6.0 0.00 0.00 0.00 47 1019.0
20260502203128 60 113 3.0 4.0 0.00 0.00 0.00 47 1019.0
20260502202628 60 68 3.0 6.0 0.00 0.00 0.00 46 1019.1
20260502202128 60 90 3.0 6.0 0.00 0.00 0.00 47 1019.1
20260502201634 60 90 6.0 6.0 0.00 0.00 0.00 48 1019.2
20260502201131 60 90 6.0 6.0 0.00 0.00 0.00 48 1019.3
20260502200634 60 90 4.0 6.0 0.00 0.00 0.00 48 1019.2
20260502200128 60 90 5.0 6.0 0.00 0.00 0.00 47 1019.1
20260502195628 60 45 3.0 4.0 0.00 0.00 0.00 48 1019.1
20260502195128 60 90 3.0 4.0 0.00 0.00 0.00 49 1019.2